Voltar ao catálogo

FLOCK 4G 13

AtivoCiênciaSSO
NORAD 62621·PAYLOAD·🇺🇸 United States

Lançado Jan 14, 2025 de Vandenberg Space Force Base

Loading…

Próximas Passagens (próximas 24 horas)

TLE

AtualizadoSource: Space-Track

Época: Sep 14, 2026, 16:50 UTC

1 62621U 25009N   26257.70167404  .00145413  00000-0  16806-2 0  9995
2 62621  97.3867 343.5384 0003193 279.7559  80.3338 15.61396560 92883

Acompanhe FLOCK 4G 13 em tempo real com AllMySat

Download on the App Store